Location: AstroGeek's Observatory
(41.9520°N, 70.9880°W)
Time: 09:41:04
(UTC-04:00)

ISS - All Passes

Search period start: 25 March 2017 00:00
Search period end: 04 April 2017 00:00
Orbit: 399 x 409 km, 51.6° (Epoch: 25 March)

Date Brightness Start Highest point End Pass type
(mag) Time Alt. Az. Time Alt. Az. Time Alt. Az.
25 Mar - 00:41:09 10° NW 00:43:12 15° N 00:45:16 10° NE night (unlit)
25 Mar - 02:17:58 10° NW 02:20:34 21° NNE 02:23:11 10° ENE night (unlit)
25 Mar - 03:54:06 10° NW 03:57:24 90° SW 04:00:42 10° SE visible
25 Mar - 05:32:41 10° WSW 05:33:23 11° SW 05:34:05 10° SW visible
25 Mar - 20:34:36 10° S 20:37:11 22° SE 20:39:46 10° E visible
25 Mar - 22:10:18 10° WSW 22:13:28 46° NNW 22:16:39 10° NE night (unlit)
25 Mar - 23:48:18 10° NW 23:50:32 17° N 23:52:47 10° NNE night (unlit)
26 Mar - 01:25:38 10° NNW 01:27:57 17° N 01:30:14 10° NE night (unlit)
26 Mar - 03:01:45 10° NW 03:04:59 51° NNE 03:08:13 10° ESE night (unlit)
26 Mar - 04:38:44 10° W 04:41:14 20° SW 04:43:42 10° S night (unlit)
26 Mar - 19:43:49 10° SSE 19:45:01 12° SE 19:46:12 10° ESE visible
26 Mar - 21:17:46 10° WSW 21:21:01 82° NW 21:24:18 10° NE visible
26 Mar - 22:55:22 10° WNW 22:57:54 20° NNW 23:00:25 10° NE night (unlit)
27 Mar - 00:33:12 10° NW 00:35:16 15° N 00:37:21 10° NE night (unlit)
27 Mar - 02:09:29 10° NW 02:12:29 32° NNE 02:15:30 10° E night (unlit)
27 Mar - 03:45:54 10° WNW 03:48:59 37° SW 03:52:03 10° SSE night (unlit)
27 Mar - 20:25:29 10° SW 20:28:39 52° SE 20:31:51 10° ENE visible
27 Mar - 22:02:27 10° W 22:05:17 26° NNW 22:08:07 10° NE visible
27 Mar - 23:40:33 10° NW 23:42:34 15° N 23:44:35 10° NE night (unlit)
28 Mar - 01:17:11 10° NW 01:19:54 23° NNE 01:22:37 10° ENE night (unlit)
28 Mar - 02:53:21 10° WNW 02:56:39 73° SW 02:59:56 10° SE night (unlit)
28 Mar - 19:33:34 10° SSW 19:36:21 27° SE 19:39:10 10° ENE visible
28 Mar - 21:09:37 10° W 21:12:43 39° NNW 21:15:50 10° NE visible
28 Mar - 22:47:42 10° NW 22:49:51 16° N 22:52:01 10° NNE visible
29 Mar - 00:24:52 10° NNW 00:27:15 18° NNE 00:29:39 10° ENE night (unlit)
29 Mar - 02:00:57 10° NW 02:04:13 61° NNE 02:07:30 10° ESE night (unlit)
29 Mar - 03:38:15 10° W 03:40:23 16° SW 03:42:30 10° S night (unlit)
29 Mar - 18:42:16 10° SSE 18:44:07 14° SE 18:45:59 10° E daylight
29 Mar - 20:16:59 10° WSW 20:20:13 67° NNW 20:23:29 10° NE visible
29 Mar - 21:54:45 10° WNW 21:57:09 19° NNW 21:59:35 10° NE visible
29 Mar - 23:32:26 10° NNW 23:34:33 16° N 23:36:41 10° NE night (unlit)
30 Mar - 01:08:37 10° NW 01:11:43 37° NNE 01:14:48 10° E night (unlit)
30 Mar - 02:45:12 10° WNW 02:48:07 30° SW 02:51:02 10° SSE night (unlit)
30 Mar - 19:24:35 10° SW 19:27:47 65° SE 19:31:01 10° ENE daylight
30 Mar - 21:01:46 10° WNW 21:04:29 24° NNW 21:07:14 10° NE visible
30 Mar - 22:39:48 10° NW 22:41:49 15° N 22:43:50 10° NE visible
31 Mar - 00:16:19 10° NW 00:19:07 25° NNE 00:21:55 10° E night (unlit)
31 Mar - 01:52:32 10° WNW 01:55:46 58° SW 01:59:00 10° SE night (unlit)
31 Mar - 18:32:28 10° SSW 18:35:25 33° SE 18:38:24 10° ENE daylight
31 Mar - 20:08:52 10° W 20:11:52 34° NNW 20:14:54 10° NE visible
31 Mar - 21:46:59 10° NW 21:49:04 16° N 21:51:08 10° NE visible
31 Mar - 23:23:57 10° NW 23:26:27 19° NNE 23:28:56 10° ENE night (unlit)
01 Apr - 01:00:03 10° NW 01:03:20 75° NNE 01:06:37 10° ESE night (unlit)
01 Apr - 02:37:47 10° W 02:39:24 13° SW 02:41:00 10° SSW night (unlit)
01 Apr - 17:40:52 10° S 17:43:08 18° SE 17:45:25 10° E daylight
01 Apr - 19:16:07 10° WSW 19:19:19 55° NNW 19:22:32 10° NE daylight
01 Apr - 20:54:01 10° WNW 20:56:19 18° NNW 20:58:38 10° NNE visible
01 Apr - 22:31:31 10° NNW 22:33:43 16° N 22:35:54 10° NE visible
02 Apr - 00:07:39 10° NW 00:10:49 42° NNE 00:13:58 10° ESE night (unlit)
02 Apr - 01:44:24 10° WNW 01:47:08 24° SW 01:49:51 10° S night (unlit)
02 Apr - 18:23:34 10° SW 18:26:49 81° SE 18:30:05 10° ENE daylight
02 Apr - 20:00:59 10° WNW 20:03:35 22° NNW 20:06:13 10° NE visible
02 Apr - 21:38:56 10° NW 21:40:57 15° N 21:42:58 10° NE visible
02 Apr - 23:15:18 10° NW 23:18:12 28° NNE 23:21:06 10° E visible
03 Apr - 00:51:36 10° WNW 00:54:47 46° SW 00:57:56 10° SE night (unlit)
03 Apr - 17:31:19 10° SSW 17:34:23 41° SE 17:37:29 10° ENE daylight
03 Apr - 19:08:00 10° W 19:10:55 29° NNW 19:13:51 10° NE daylight
03 Apr - 20:46:08 10° NW 20:48:09 15° N 20:50:10 10° NE visible
03 Apr - 22:22:56 10° NW 22:25:30 21° NNE 22:28:06 10° ENE visible
